Regional Weather Roundup
Issued by NWS

Home | Current Version | Previous Version | Graphics & Text | Print | Product List | Glossary On
Versions: 1 2 3 4 5 6 7 8 9 10 11 12 13 14 15 16 17 18 19 20 21 22 23 24 25 26 27 28 29 30 31 32 33 34 35 36 37 38 39 40 41 42 43 44 45 46 47 48 49 50
000
ASUS43 KFSD 311310
RWRSD

WEATHER ROUNDUP FOR SOUTH DAKOTA
NATIONAL WEATHER SERVICE SIOUX FALLS SD
800 AM CDT FRI OCT 31 2014

NOTE: "FAIR" INDICATES FEW OR NO CLOUDS BELOW 12,000 FEET WITH NO
SIGNIFICANT WEATHER AND/OR OBSTRUCTIONS TO VISIBILITY.


SDZ001>005-009-010-012>017-311400-
NORTHWEST AND NORTH CENTRAL SOUTH DAKOTA

CITY           SKY/WX    TMP DP  RH WIND       PRES   REMARKS
BUFFALO          N/A     31  29  92 SE22G30   30.25F WCI  18
FAITH            N/A     24  20  84 SE17      30.42F WCI  11
MOBRIDGE       PTCLDY    19  14  81 CALM      30.52S
$$

SDZ012>016-024>037-041>051-057-063-072>074-311400-
SOUTHWEST AND SOUTH CENTRAL SOUTH DAKOTA

CITY           SKY/WX    TMP DP  RH WIND       PRES   REMARKS
RAPID CTY ARPT CLOUDY    30  29  96 S18       30.38F FOG     WCI  18
PIERRE         FOG       17  15  92 CALM      30.55F VSB 1/4
CUSTER         FOG       28  25  88 SW6       30.32F VSB 1/2 WCI  22
ELLSWORTH AFB  CLOUDY    31  30  94 S23       30.35F WCI  18
PHILIP         CLOUDY    29  22  75 SE8       30.49F WCI  21
PINE RIDGE     CLOUDY    29  27  92 SE10      30.42F WCI  20
SPEARFISH      FOG       28  28 100 SW3       30.25F VSB<1/4
WINNER         FAIR      18  14  84 SW5       30.55F WCI  11
$$

SDZ004>011-016>023-039-040-311400-
NORTHEAST SOUTH DAKOTA

CITY           SKY/WX    TMP DP  RH WIND       PRES   REMARKS
ABERDEEN       PTCLDY    12   8  84 CALM      30.60S
WATERTOWN      CLEAR     15  13  91 N3        30.55R
SISSETON         N/A     16  14  92 N5        30.60R WCI   9
$$

SDZ017-020-022-023-036>040-048>070-311400-
SOUTHEAST SOUTH DAKOTA

CITY           SKY/WX    TMP DP  RH WIND       PRES   REMARKS
SIOUX FALLS    PTCLDY    20  17  88 N8        30.55F WCI  10
HURON          PTCLDY     8   6  92 NW6       30.59F WCI  -2
CHAMBERLAIN    PTCLDY    12   9  87 CALM      30.57S
MITCHELL       PTCLDY    16  14  92 W6        30.60S WCI   7
YANKTON        PTCLDY    18  16  93 NW8       30.59S WCI   7
$$

ABBREVIATIONS USED IN REMARKS
   TC - TEMPERATURE IN CELSIUS
  WCI - WIND CHILL INDEX
   HX - HEAT INDEX
  VSB - VISIBILITY




USA.gov is the U.S. government's official web portal to all federal, state and local government web resources and services.